Voltar ao catálogo

COSMOS 566

AtivoMilitarLEO
NORAD 6677·PAYLOAD·🇷🇺 Russia

Lançado Jun 8, 1973 de Plesetsk Cosmodrome

Loading…

Próximas Passagens (próximas 24 horas)

TLE

AtualizadoSource: Space-Track

Época: Sep 14, 2026, 21:11 UTC

1 06677U 73037C   26257.88324848 -.00000010  00000-0  39131-4 0  9996
2 06677  74.0163 114.7496 0031745 338.7008  49.7656 12.51705744433698

Acompanhe COSMOS 566 em tempo real com AllMySat

Download on the App Store